User: anonymous
Location: Niverville
(49.6028°N, 97.0419°W)
Time: 08:56:21
(UTC-05:00)
Language:

Cosmos 2237 Rocket - Orbit

View from above orbital plane
View from above orbital plane
View from above satellite
View from above satellite

Ground track
Ground track

The orbit data is extracted from the following two-line orbital elements,

1 22566U 93016B   14112.83285245  .00000253  00000-0  15562-3 0   393
2 22566 071.0088 323.4871 0008270 082.6688 277.5375 14.14838187 88412
Epoch (UTC): 22 April 2014 19:59:18
Eccentricity: 0.0008270
inclination: 71.0088°
perigee height: 837 km
apogee height: 849 km
right ascension of ascending node: 323.4871°
argument of perigee: 82.6688°
revolutions per day: 14.14838187
mean anomaly at epoch: 277.5375°
orbit number at epoch: 8841

The dashed part of the orbit path shows where the satellite is in the earth's shadow,  

DLR